Terminal Aerodrome Forecast
Issued by NWS

Home | Current Version | Previous Version | Text Only | Print | Product List | Glossary On
Versions: 1 2 3 4 5 6 7 8 9 10 11 12 13 14 15 16 17 18 19 20 21 22 23 24 25
000
FTUS41 KBOX 232324
TAFBED
TAF
KBED 232324Z 2400/2424 25009KT P6SM BKN060
     FM240145 VRB05KT 6SM -RA VCTS OVC035CB
     FM240300 21005KT 5SM -RA BR OVC030
     FM241100 36006KT P6SM OVC035
     FM242100 07004KT P6SM BKN040=

USA.gov is the U.S. government's official web portal to all federal, state and local government web resources and services.